[[{"header":{"parameterUnit":"m.s-1","parameterCategory":1,"la1":30.2991,"la2":30.254,"lo1":-89.0895,"lo2":-89.0444,"dy":0.0017,"dx":0.0017,"nx":28,"ny":28,"refTime":"2024-09-01T21:00:00:Z","depth":0,"parameterNumber":2,"parameterNumberName":"U-component_of_WINDS"},"data":[0,0,0,0,0,0,0,0,0,0,0,0,0,0,0,0,0,0,0,0,0,0,0,0,0,0,0,0,0,0,0,0,0,0,0,0,0,0,0,0,0,0,0,0,0,0,0,0,0,0,0,0,0,0,0,0,0,0,-2.9571,-2.9571,0,-2.963,-2.963,-2.9631,-2.9578,-2.9576,-2.9574,-2.9572,-2.9631,-2.9635,-2.9639,0,0,0,0,0,0,0,0,0,0,0,0,0,-2.9412,-2.9415,-2.9571,-2.9572,-2.9572,-2.963,-2.963,-2.9631,-2.9579,-2.9576,-2.9574,-2.9571,-2.963,-2.9635,-2.9639,0,0,0,0,0,0,0,0,0,0,0,0,0,-2.9477,-2.9416,-2.9571,-2.9553,-2.9552,-2.963,-2.9631,-2.9631,-2.9579,-2.9576,-2.9573,-2.957,-2.9629,-2.9634,-2.9639,-2.9737,0,0,-2.9656,-2.9658,0,0,0,0,0,0,0,0,-2.9473,-2.9483,-2.9555,-2.9554,-2.9553,-2.9594,-2.9596,-2.9667,-2.958,-2.9569,-2.9572,-2.9568,-2.9621,-2.9627,-2.9645,-2.974,-2.9742,-2.9656,-2.966,-2.9662,-2.9663,0,0,0,0,0,0,0,-2.9469,-2.948,-2.9594,-2.9556,-2.9555,-2.9542,-2.9548,-2.9609,-2.9612,-2.957,-2.9566,-2.9574,-2.962,-2.964,-2.9646,-2.9743,-2.9656,-2.9661,-2.9664,-2.9666,-2.992,-2.9923,0,0,0,0,0,0,-2.9466,-2.9477,-2.9592,-2.9596,-2.9505,-2.9547,-2.9554,-2.9584,-2.9612,-2.9613,-2.9577,-2.9571,-2.9633,-2.964,-2.9648,-2.9763,-2.9662,-2.9667,-2.967,-2.9917,-2.9921,-2.9925,0,0,0,0,0,0,-2.9463,-2.9477,-2.959,-2.9535,-2.9549,-2.9554,-2.9588,-2.9587,-2.9606,-2.9617,-2.9617,-2.9596,-2.963,-2.9641,-2.9715,-2.9765,-2.9669,-2.9674,-2.9912,-2.9918,-2.9923,-2.9995,0,0,0,0,0,0,-2.9459,-2.9476,-2.9514,-2.9537,-2.9552,-2.9656,-2.9591,-2.959,-2.9616,-2.961,-2.9635,-2.9637,-2.9629,-2.9708,-2.9721,-2.977,-2.9678,-2.9908,-2.9915,-2.9921,-2.9988,-3.0002,-3.0014,0,0,0,0,0,-2.9453,-2.9531,-2.9516,-2.953,-2.9598,-2.9659,-2.9668,-2.9657,-2.962,-2.9657,-2.9664,-2.9636,-2.9758,-2.9716,-2.973,-2.9782,-2.9905,-2.9913,-2.9921,-2.9983,-3.0,-3.0014,0,0,0,0,0,0,-2.9513,-2.9534,-2.9517,-2.9605,-2.9631,-2.965,-2.9697,-2.9676,-2.9713,-2.9705,-2.969,-2.9697,-2.9775,-2.9786,-2.9739,-2.9878,-2.9825,-2.9836,-2.9867,-2.9884,-2.9896,-2.9891,-2.9683,0,0,0,0,0,-2.9537,-2.9585,-2.96,-2.9676,-2.9691,-2.9692,-2.9718,-2.9708,-2.9734,-2.9744,-2.9756,-2.9783,-2.9827,-2.9856,-2.9897,-2.999,-2.9995,-3.0033,-3.0046,-3.0057,-3.0066,-3.0115,-3.0132,-2.9951,-2.9951,-2.9951,0,0,-2.9586,-2.9603,-2.9634,-2.9689,-2.9708,-2.9758,-2.9701,-2.9756,-2.9793,-2.9753,-2.9823,-2.9834,-2.9862,-2.9946,-2.9984,-2.9958,-3.0118,-3.0067,-3.0075,-3.0079,-3.0125,-3.0143,-3.0158,-2.9956,-2.9955,-2.9954,0,0,-2.97,-2.9718,-2.9783,-2.9804,-2.9834,-2.9834,-2.985,-2.9873,-2.9878,-2.995,-2.9921,-2.9964,-3.004,-3.0062,-3.0082,-3.0206,-3.0181,-3.022,-3.0287,-3.0335,-3.0349,-3.0362,-3.0405,-3.042,-3.023,-3.023,-3.023,0,-2.9756,-2.983,-2.9819,-2.9877,-2.9901,-2.9869,-2.9934,-2.9954,-2.9996,-3.0014,-2.9984,-3.0079,-3.0096,-3.0185,-3.0215,-3.0233,-3.025,-3.0216,-3.0348,-3.0361,-3.0372,-3.0413,-3.0429,-3.0234,-3.0234,-3.0233,-3.0233,0,-2.9898,-2.995,-2.9999,-3.0041,-3.0071,-3.0132,-3.013,-3.0163,-3.015,-3.0154,-3.0227,-3.0246,-3.029,-3.0311,-3.03,-3.0398,-3.0381,-3.0351,-3.0297,-3.0394,-3.0432,-3.0448,-3.0241,-3.0239,-3.0238,-3.0237,0,0,-3.005,-3.0085,-3.0103,-3.0122,-3.0153,-3.0192,-3.0253,-3.0296,-3.0324,-3.0354,-3.0403,-3.047,-3.0442,-3.0465,-3.0456,-3.0499,-3.0594,-3.0463,-3.0463,-3.0485,-3.0703,-3.0724,-3.0742,-3.0579,-3.0582,-3.0584,-3.07,0,-3.0164,-3.0268,-3.026,-3.0358,-3.0406,-3.0376,-3.0428,-3.0453,-3.0458,-3.0499,-3.0505,-3.0551,-3.0512,-3.0526,-3.0567,-3.0574,-3.0637,-3.0566,-3.0623,-3.0625,-3.0615,-3.0762,-3.0785,-3.0893,-3.0715,-3.0717,-3.0719,0,-3.031,-3.0346,-3.0449,-3.0473,-3.0493,-3.054,-3.0579,-3.0619,-3.0647,-3.0648,-3.0675,-3.0659,-3.0719,-3.0666,-3.0747,-3.0699,-3.0722,-3.0729,-3.0733,-3.0737,-3.0676,-3.0768,-3.0928,-3.0943,-3.0743,-3.0741,-3.0739,0,-3.0408,-3.0483,-3.0554,-3.0571,-3.0601,-3.0635,-3.0649,-3.0673,-3.07,-3.0735,-3.0752,-3.0794,-3.0816,-3.0849,-3.0844,-3.0806,-3.0927,-3.0874,-3.0928,-3.0928,-3.0953,-3.0951,-3.1117,-3.0972,-3.0972,-3.0971,-3.0971,0,-3.0535,-3.0599,-3.0598,-3.0642,-3.0712,-3.0704,-3.0774,-3.0784,-3.0806,-3.0851,-3.0828,-3.087,-3.0863,-3.0905,-3.0902,-3.0969,-3.098,-3.0982,-3.098,-3.0983,-3.0982,-3.0996,-3.0988,-3.0976,-3.0975,-3.0974,-3.0973,0,-3.0656,-3.0658,-3.0733,-3.0757,-3.0764,-3.0815,-3.0834,-3.0875,-3.088,-3.0937,-3.0949,-3.0956,-3.1004,-3.1004,-3.1059,-3.1057,-3.1139,-3.113,-3.113,-3.1127,-3.1181,-3.1176,-3.136,-3.1383,-3.1225,-3.1227,-3.1228,0,-3.0735,-3.0784,-3.0813,-3.0841,-3.0858,-3.0904,-3.0932,-3.0926,-3.0955,-3.0991,-3.1028,-3.1074,-3.1111,-3.119,-3.1199,-3.1241,-3.1231,-3.1293,-3.1237,-3.1238,-3.123,-3.1226,-3.123,-3.1303,-3.1305,-3.1306,-3.1308,0,-3.0876,-3.0875,-3.0916,-3.0958,-3.0992,-3.1025,-3.1055,-3.1079,-3.1076,-3.1111,-3.1161,-3.1189,-3.1246,-3.1293,-3.1333,-3.1347,-3.1327,-3.1326,-3.134,-3.1342,-3.134,-3.134,-3.1158,-3.1321,-3.1319,-3.1318,-3.1318,-3.1317,-3.0977,-3.1018,-3.1045,-3.1092,-3.1114,-3.1143,-3.1183,-3.1193,-3.1234,-3.128,-3.1274,-3.133,-3.1356,-3.1409,-3.1427,-3.147,-3.1448,-3.1469,-3.1474,-3.1479,-3.1484,-3.1335,-3.1477,-3.1477,-3.1477,-3.1476,-3.1476,0,-3.1114,-3.1131,-3.1174,-3.1217,-3.1254,-3.1234,-3.1266,-3.1298,-3.1347,-3.1374,-3.1411,-3.1468,-3.1513,-3.1527,-3.157,-3.1602,-3.1593,-3.1613,-3.1609,-3.1613,-3.1502,-3.1484,-3.1619,-3.1619,-3.1619,-3.1619,-3.1619,-3.1619,-3.119,-3.1259,-3.1262,-3.1342,-3.1357,-3.1412,-3.1432,-3.1458,-3.148,-3.1545,-3.1583,-3.1592,-3.1613,-3.1658,-3.1698,-3.1701,-3.1717,-3.1741,-3.1739,-3.1635,-3.1621,-3.1607,-3.159,-3.1745,-3.1745,-3.1846,-3.1847,-3.1848]},{"header":{"parameterUnit":"m.s-1","parameterCategory":1,"la1":30.2991,"la2":30.254,"lo1":-89.0895,"lo2":-89.0444,"dy":0.0017,"dx":0.0017,"nx":28,"ny":28,"refTime":"2024-09-01T21:00:00:Z","depth":0,"parameterNumber":3,"parameterNumberName":"V-component_of_WINDS"},"data":[0,0,0,0,0,0,0,0,0,0,0,0,0,0,0,0,0,0,0,0,0,0,0,0,0,0,0,0,0,0,0,0,0,0,0,0,0,0,0,0,0,0,0,0,0,0,0,0,0,0,0,0,0,0,0,0,0,0,-3.0267,-3.0267,0,-3.0271,-3.0271,-3.0271,-3.0221,-3.0219,-3.0218,-3.0217,-3.0221,-3.0223,-3.0224,0,0,0,0,0,0,0,0,0,0,0,0,0,-3.0215,-3.0216,-3.0267,-3.0267,-3.0267,-3.0271,-3.0271,-3.0271,-3.0221,-3.0219,-3.0218,-3.0216,-3.0221,-3.0222,-3.0224,0,0,0,0,0,0,0,0,0,0,0,0,0,-3.023,-3.0216,-3.0267,-3.0243,-3.024,-3.0271,-3.0271,-3.0271,-3.0221,-3.0219,-3.0217,-3.0215,-3.022,-3.0222,-3.0224,-3.0279,0,0,-3.0231,-3.0232,0,0,0,0,0,0,0,0,-3.0229,-3.0232,-3.0246,-3.0244,-3.0242,-3.0243,-3.0254,-3.0274,-3.0222,-3.0229,-3.0217,-3.0214,-3.023,-3.0232,-3.0237,-3.0279,-3.028,-3.0231,-3.0232,-3.0233,-3.0234,0,0,0,0,0,0,0,-3.0228,-3.0232,-3.0269,-3.0246,-3.0244,-3.0231,-3.0231,-3.0258,-3.0241,-3.0228,-3.0224,-3.0225,-3.0229,-3.0235,-3.0237,-3.028,-3.0231,-3.0233,-3.0234,-3.0235,-3.0366,-3.0368,0,0,0,0,0,0,-3.023,-3.0231,-3.0269,-3.0269,-3.023,-3.0234,-3.0234,-3.0245,-3.0241,-3.0238,-3.0227,-3.0223,-3.0232,-3.0234,-3.0237,-3.03,-3.0233,-3.0235,-3.0237,-3.0364,-3.0367,-3.0369,0,0,0,0,0,0,-3.023,-3.0234,-3.0268,-3.0249,-3.0252,-3.0237,-3.025,-3.0246,-3.0252,-3.024,-3.0237,-3.0237,-3.0231,-3.0234,-3.0269,-3.0299,-3.0236,-3.0238,-3.0361,-3.0365,-3.0368,-3.0427,0,0,0,0,0,0,-3.0228,-3.0234,-3.0255,-3.025,-3.0254,-3.0301,-3.0252,-3.0248,-3.0256,-3.0251,-3.0248,-3.0246,-3.0229,-3.0266,-3.0271,-3.0301,-3.024,-3.0359,-3.0363,-3.0367,-3.0422,-3.0432,-3.044,0,0,0,0,0,-3.0227,-3.0272,-3.0257,-3.0261,-3.0279,-3.0303,-3.0305,-3.0285,-3.0259,-3.0279,-3.0271,-3.0246,-3.0295,-3.027,-3.0275,-3.0306,-3.0357,-3.0362,-3.0367,-3.0418,-3.043,-3.044,0,0,0,0,0,0,-3.0282,-3.0271,-3.0254,-3.0299,-3.0302,-3.0294,-3.032,-3.0298,-3.0309,-3.0304,-3.0279,-3.0279,-3.0318,-3.0316,-3.0288,-3.0359,-3.0321,-3.0327,-3.0359,-3.037,-3.0379,-3.0378,-3.0242,0,0,0,0,0,-3.0299,-3.0319,-3.0309,-3.0349,-3.0352,-3.0336,-3.0345,-3.033,-3.0332,-3.0333,-3.0328,-3.0331,-3.0347,-3.0358,-3.0373,-3.0422,-3.042,-3.0446,-3.0455,-3.0462,-3.0468,-3.0493,-3.0504,-3.0385,-3.0385,-3.0385,0,0,-3.0336,-3.0332,-3.0346,-3.036,-3.0361,-3.0382,-3.0337,-3.0362,-3.0377,-3.0337,-3.037,-3.0366,-3.0368,-3.041,-3.0428,-3.0409,-3.05,-3.0468,-3.0474,-3.0476,-3.0499,-3.051,-3.052,-3.0389,-3.0388,-3.0388,0,0,-3.0413,-3.0412,-3.0446,-3.0447,-3.0448,-3.0437,-3.0445,-3.044,-3.0436,-3.0468,-3.0439,-3.0456,-3.0485,-3.0487,-3.0492,-3.0568,-3.0545,-3.0574,-3.0621,-3.0645,-3.0655,-3.0663,-3.069,-3.07,-3.0579,-3.058,-3.058,0,-3.0458,-3.0488,-3.0466,-3.0492,-3.0498,-3.0463,-3.0496,-3.0498,-3.0505,-3.051,-3.0488,-3.0523,-3.0522,-3.0564,-3.0582,-3.0587,-3.0596,-3.0574,-3.0655,-3.0663,-3.067,-3.0696,-3.0706,-3.0583,-3.0583,-3.0582,-3.0582,0,-3.0543,-3.0564,-3.0591,-3.0598,-3.0607,-3.0637,-3.0619,-3.0631,-3.0614,-3.0605,-3.0638,-3.0635,-3.0648,-3.0657,-3.0641,-3.0696,-3.0684,-3.066,-3.0621,-3.0685,-3.0709,-3.0718,-3.0588,-3.0587,-3.0586,-3.0585,0,0,-3.0656,-3.0648,-3.0658,-3.066,-3.0659,-3.0675,-3.0702,-3.0714,-3.0725,-3.0731,-3.0753,-3.0777,-3.0754,-3.076,-3.0744,-3.0765,-3.0825,-3.0737,-3.0737,-3.0754,-3.0885,-3.0904,-3.0915,-3.081,-3.0811,-3.0813,-3.0885,0,-3.073,-3.0777,-3.0757,-3.0805,-3.0824,-3.079,-3.0814,-3.0816,-3.0808,-3.0822,-3.0814,-3.0831,-3.0799,-3.0802,-3.0822,-3.0814,-3.0851,-3.0808,-3.083,-3.0831,-3.083,-3.0928,-3.0947,-3.1016,-3.0894,-3.0895,-3.0896,0,-3.0823,-3.0832,-3.0882,-3.0876,-3.0883,-3.0905,-3.0914,-3.0929,-3.0929,-3.0922,-3.0928,-3.0906,-3.0933,-3.0895,-3.093,-3.0902,-3.0909,-3.0906,-3.0908,-3.091,-3.0868,-3.0931,-3.1037,-3.1047,-3.0911,-3.091,-3.0909,0,-3.09,-3.0924,-3.0956,-3.0959,-3.0953,-3.0969,-3.0967,-3.0966,-3.0974,-3.0982,-3.0986,-3.0997,-3.1003,-3.1012,-3.0994,-3.0968,-3.1032,-3.0993,-3.1027,-3.1027,-3.1042,-3.1041,-3.115,-3.1047,-3.1047,-3.1047,-3.1047,0,-3.0985,-3.1017,-3.0991,-3.1011,-3.1045,-3.1022,-3.1057,-3.1051,-3.105,-3.1068,-3.104,-3.1057,-3.1033,-3.1048,-3.1034,-3.1066,-3.1069,-3.1063,-3.1059,-3.1066,-3.1066,-3.107,-3.1065,-3.105,-3.1049,-3.1048,-3.1048,0,-3.1076,-3.106,-3.1093,-3.1084,-3.1083,-3.1109,-3.1101,-3.1119,-3.1109,-3.1132,-3.1136,-3.112,-3.1137,-3.112,-3.1135,-3.1126,-3.1168,-3.1157,-3.1168,-3.1164,-3.1199,-3.1196,-3.1314,-3.1328,-3.1217,-3.1218,-3.1219,0,-3.1132,-3.1155,-3.1148,-3.1158,-3.1158,-3.1175,-3.1183,-3.116,-3.1169,-3.1171,-3.1189,-3.1203,-3.1213,-3.1241,-3.1231,-3.1242,-3.1231,-3.1272,-3.1233,-3.1238,-3.1231,-3.123,-3.1232,-3.128,-3.1281,-3.1282,-3.1283,0,-3.1231,-3.1222,-3.1234,-3.1243,-3.1253,-3.1259,-3.1264,-3.1273,-3.125,-3.1262,-3.1278,-3.1286,-3.1301,-3.1315,-3.1323,-3.1321,-3.1298,-3.1295,-3.1304,-3.131,-3.1315,-3.1313,-3.1189,-3.1293,-3.1292,-3.1291,-3.129,-3.129,-3.1306,-3.1325,-3.1323,-3.1337,-3.1337,-3.1342,-3.1358,-3.1349,-3.1362,-3.1373,-3.1358,-3.1378,-3.1377,-3.1386,-3.1387,-3.1402,-3.1385,-3.1397,-3.14,-3.1403,-3.1408,-3.1313,-3.1403,-3.1403,-3.1403,-3.1403,-3.1402,0,-3.1404,-3.14,-3.1413,-3.142,-3.1431,-3.1407,-3.141,-3.1421,-3.1439,-3.144,-3.145,-3.1468,-3.1481,-3.1472,-3.1483,-3.1497,-3.1487,-3.1501,-3.1499,-3.1499,-3.1423,-3.1414,-3.1509,-3.1509,-3.1509,-3.1509,-3.1509,-3.1509,-3.1456,-3.1486,-3.1476,-3.1507,-3.1503,-3.1522,-3.1525,-3.1529,-3.1529,-3.1551,-3.1561,-3.1555,-3.1551,-3.1562,-3.1573,-3.1569,-3.1575,-3.1592,-3.1586,-3.1515,-3.1504,-3.1494,-3.1486,-3.1594,-3.1594,-3.166,-3.1661,-3.1661]}]]